Flag for U.S.A. Weather past 2 weeks in Citrus Heights, California, U.S.A.

Now
41 °F

Clear.


Feels Like: 41 °F
Forecast: 43 / 62 °F
Wind: No wind

Location: Mather Field

Current Time: Jan 29, 2015 at 6:26:01 AM

Latest Report: Jan 29, 2015 at 5:50 AM


Visibility: 10 mi

Pressure: 30.14 "Hg

Humidity: 100%

Dew point: 41 °F

Location of Citrus HeightsLocation

Historic Weather in Citrus Heights — Graph

°F

Citrus Heights temperature yesterday

Maximum temperature yesterday: 63 °F (at 1:50 PM)
Minimum temperature yesterday: 45 °F (at 4:46 AM)
Average temperature yesterday: 50 °F

Past Weeks' High & Low Weather Summary

 TemperatureHumidityPressure
High64 °F (Jan 26, 2:46 PM)100% (Jan 14, 4:46 AM)30.40 "Hg (Jan 14, 4:46 AM)
Low37 °F (Jan 14, 4:46 AM)48% (Jan 25, 4:46 PM)29.97 "Hg (Jan 26, 2:46 PM)
Average48 °F98%30.23 "Hg
* Reported Jan 14 4:46 AM — Jan 29 4:55 AM, Citrus Heights, Weather by CustomWeather, © 2014

Note: Actual official high and low records may vary slightly from our data, if they occured in-between our weather recording intervals... More about our weather records

Advertising

Citrus Heights weather history for previous 24 hours

 ConditionsComfort  
Time TempWeatherWind HumidityBarometerVisibility
4:55 AM
Jan 29
43 °FClear.No wind100%30.14 "Hg10 mi
3:45 AM43 °FClear.No wind100%30.16 "Hg10 mi
11:30 PM
Jan 28
46 °FClear.No wind100%30.18 "Hg10 mi
10:50 PM46 °FClear.6 mph100%30.17 "Hg10 mi
8:47 PM48 °FClear.7 mph100%30.17 "Hg10 mi
7:45 PM48 °FClear.5 mph100%30.17 "Hg10 mi
6:55 PM48 °FPassing clouds.5 mph100%30.17 "Hg10 mi
5:45 PM55 °FPassing clouds.5 mph100%30.16 "Hg10 mi
4:45 PM59 °FScattered clouds.6 mph100%30.16 "Hg10 mi
2:55 PM63 °FScattered clouds.6 mph64%30.17 "Hg10 mi
1:50 PM63 °FScattered clouds.3 mph59%30.18 "Hg10 mi
11:45 AM57 °FScattered clouds.5 mph100%30.24 "Hg10 mi
10:55 AM54 °FScattered clouds.3 mph100%30.26 "Hg10 mi
9:50 AM50 °FScattered clouds.No wind100%30.26 "Hg8 mi
8:48 AM45 °FFog.No wind100%30.26 "Hg1 mi
7:45 AM45 °FFog.3 mph100%30.25 "Hg1 mi
6:50 AM45 °FFog.6 mph100%30.26 "Hg2 mi
Weather by CustomWeather, © 2014

See weather overviewHow to use our weather pages